Hourly Data Report for October 05, 2017

All times are specified in Local Standard Time (LST). Add 1 hour to adjust for Daylight Saving Time where and when it is observed.

SUMMERLAND CS
BRITISH COLUMBIA

49°33'45.200" N
119°38'55.300" W
454.20 m
112G8L1
71768
WUS

Download Data

Hourly Data (October 2017)
Hourly Data Report for October 5, 2017
Temp Definition
°C
Dew Point Temp Definition
°C
Rel Hum Definition
%
Wind Dir Definition
10's deg

Wind Spd Definition
km/h
Visibility Definition
km
Stn Press Definition
kPa
Hmdx Definition


Wind Chill Definition


Weather Definition


TIME
00:00 5.9 -3.6 50 29 16   96.91     LegendNANA
01:00 5.7 -3.6 51 29 15   96.92     LegendNANA
02:00 5.1 -3.7 53 29 14   96.93     LegendNANA
03:00 4.7 -3.6 55 29 14   96.93     LegendNANA
04:00 4.0 -3.6 58 29 14   96.96     LegendNANA
05:00 3.9 -3.5 58 29 15   96.96     LegendNANA
06:00 4.0 -3.5 58 29 14   97.00     LegendNANA
07:00 4.2 -3.5 57 29 15   97.00     LegendNANA
08:00 7.9 -2.8 47 29 7   97.00     LegendNANA
09:00 10.4 1.9 56 2 3   96.97     LegendNANA
10:00 11.8 1.9 51 13 4   96.91     LegendNANA
11:00 12.6 1.8 47 4 6   96.84     LegendNANA
12:00 13.7 1.8 44 4 6   96.76     LegendNANA
13:00 15.0 0.7 38 6 4   96.66     LegendNANA
14:00 15.9 -0.1 34 17 3   96.55     LegendNANA
15:00 15.7 0.0 34 5 3   96.47     LegendNANA
16:00 16.3 -0.4 32   0   96.41     LegendNANA
17:00 12.2 -1.1 40 27 4   96.36     LegendNANA
18:00 10.9 -0.6 45 28 6   96.38     LegendNANA
19:00 9.9 -1.1 46 29 10   96.40     LegendNANA
20:00 9.4 -1.7 46 29 15   96.40     LegendNANA
21:00 9.4 -2.5 43 29 14   96.37     LegendNANA
22:00 8.5 -2.9 45 28 10   96.35     LegendNANA
23:00 8.2 -2.4 47 27 7   96.33     LegendNANA

Notes on Data Quality.

Legend

  • E = Estimated
  • M = Missing
  • NA = Not Available
  • ‡ = Partner data that is not subject to review by the National Climate Archives
Date modified: